Location: Horowhenua
(40.7500°S, 175.3333°E)
Time: 06:27:17
(UTC+00:00)

NOSS 3-1 (C) - Pass Details

Date: 28 January 2023
Orbit: 688 x 1519 km, 63.4° (Epoch: 29 March)

Event Time Altitude Azimuth Distance (km) Brightness Sun altitude
Rises 12:48:08 0° 212° (SSW) 3,914 7.4 -30.9°
Reaches altitude 10° 12:51:13 10° 205° (SSW) 2,814 6.6 -30.9°
Maximum altitude 12:57:18 42° 135° (SE) 1,244 4.3 -30.8°
Enters shadow 12:58:46 35° 99° (E) 1,342 4.3 -30.7°
